This demonstration page uses our WeatherBlox Daily Observations layout. Learn more.

Left ArrowRight Arrow

38.80484, -77.04692

Hourly Observations for December 25, 2021

Temp ( °F °C ) Dew Point ( °F °C ) Humidity (%) Winds ( mph kmh ) Pressure ( in mb ) Visibility ( mi km ) Precip ( " mm )
12:52 am 00:52 Cloudy 50 10 36 2.2 59 59 SSW 5 7 29.79 1009 10 16 0.00 0.00
1:52 am 01:52 Cloudy 49 9.4 37 2.8 64 64 Calm 29.79 1009 10 16 0.00 0.00
2:52 am 02:52 Cloudy 49 9.4 38 3.3 66 66 S 8 13 29.75 1008 10 16 0.00 0.00
3:52 am 03:52 Cloudy 51 10.6 36 2.2 56 56 S 7 11 29.72 1007 10 16 0.00 0.00
4:52 am 04:52 Cloudy 50 10 37 2.8 61 61 S 8 13 29.71 1006 10 16 0.00 0.00
5:52 am 05:52 Cloudy 50 10 39 3.9 66 66 S 10 17 29.67 1005 10 16 0.00 0.00
6:52 am 06:52 Cloudy 54 12.2 40 4.4 59 59 SSW 8 13 29.67 1005 10 16 0.00 0.00
7:52 am 07:52 Cloudy 55 12.8 40 4.4 57 57 SSW 10 17 29.65 1004 10 16 0.00 0.00
8:52 am 08:52 Cloudy 55 12.8 40 4.4 57 57 SSW 12 19 29.65 1004 10 16 0.00 0.00
9:52 am 09:52 Mostly Cloudy 57 13.9 40 4.4 53 53 SSW 14 22 29.64 1004 10 16 0.00 0.00
10:52 am 10:52 Mostly Cloudy 61 16.1 42 5.6 50 50 SSW 14 22 29.60 1003 10 16 0.00 0.00
11:52 am 11:52 Mostly Cloudy 61 16.1 43 6.1 52 52 SSW 13 20 29.59 1002 10 16 0.00 0.00
12:52 pm 12:52 Partly Cloudy 65 18.3 44 6.7 47 47 SSW 10 17 29.57 1001 10 16 0.00 0.00
1:52 pm 13:52 Partly Cloudy 62 16.7 45 7.2 54 54 S 13 20 29.54 1000 10 16 0.00 0.00
2:52 pm 14:52 Mostly Cloudy 61 16.1 45 7.2 56 56 S 13 20 29.54 1000 10 16 0.00 0.00
3:52 pm 15:52 Mostly Cloudy 62 16.7 47 8.3 58 58 S 10 17 29.54 1001 10 16 0.00 0.00
4:52 pm 16:52 Mostly Cloudy 61 16.1 47 8.3 60 60 S 9 15 29.55 1001 10 16 0.00 0.00
5:52 pm 17:52 Cloudy with Light Rain 60 15.6 47 8.3 62 62 S 8 13 29.56 1001 10 16 0.00 0.00
6:52 pm 18:52 Cloudy 67 19.4 50 10 55 55 SW 10 17 29.56 1001 10 16 0.00 0.00
7:52 pm 19:52 Mostly Cloudy 64 17.8 51 10.6 63 63 N 5 7 29.57 1002 10 16 0.00 0.00
8:32 pm 20:32 Cloudy with Light Rain 62 16.7 56 13.3 80 80 NW 17 28 29.63 1003 5 8 0.04 1.02
8:52 pm 20:52 Cloudy with Light Rain 62 16.7 55 12.8 78 78 W 9 15 29.64 1004 10 16 0.06 1.52
9:52 pm 21:52 Cloudy with Light Rain 61 16.1 56 13.3 84 84 WSW 7 11 29.65 1004 10 16 0.01 0.25
10:52 pm 22:52 Mostly Cloudy 61 16.1 55 12.8 81 81 W 8 13 29.68 1005 10 16 0.00 0.00
11:52 pm 23:52 Partly Cloudy 60 15.6 53 11.7 78 78 W 7 11 29.71 1006 10 16 0.00 0.00

Powered by AerisWeather